Regional Weather Roundup
Issued by NWS

Home | Current Version | Previous Version | Graphics & Text | Print | Product List | Glossary On
Versions: 1 2 3 4 5 6 7 8 9 10 11 12 13 14 15 16 17 18 19 20 21 22 23 24 25 26 27
000
ASUS45 KBOU 250507
RWRCO

WEATHER ROUNDUP FOR COLORADO
NATIONAL WEATHER SERVICE DENVER/BOULDER CO
1100 PM MDT TUE MAY 24 2016

NOTE: "FAIR" INDICATES FEW OR NO CLOUDS BELOW 12000 FEET WITH NO
SIGNIFICANT WEATHER AND/OR OBSTRUCTIONS TO VISIBILITY.

COZ001>005-013-030-031-250600-
...NORTHWEST COLORADO...

CITY           SKY/WX    TMP DP  RH WIND       PRES   REMARKS
CRAIG          MOCLDY    46  34  62 SE5       30.00R
HAYDEN         FAIR      48  27  43 CALM      30.01R
MEEKER         CLOUDY    55  29  36 N3        29.99S
MOUNT WERNER   NOT AVBL
STEAMBOAT SPGS FAIR      51  27  39 W3        30.02S
WALDEN         FAIR      41  28  60 N5        30.07R
$$

COZ006>008-011-250600-
...WEST CENTRAL VALLEYS...

CITY           SKY/WX    TMP DP  RH WIND       PRES   REMARKS
GRAND JUNCTION FAIR      60  24  25 CALM      29.90R
MONTROSE       FAIR      51  23  33 S8        29.98R
EAGLE          FAIR      52  19  28 E7        29.99R
RIFLE          MOCLDY    64  22  20 W17       29.92R
DELTA          FAIR      62  20  20 W5        29.92S
NUCLA          FAIR      63  18  17 SW9       30.01R
$$

COZ017>023-064>068-250600-
...SOUTHWEST COLORADO...

CITY           SKY/WX    TMP DP  RH WIND       PRES   REMARKS
DURANGO        FAIR      54  13  19 W7        30.07R
CORTEZ         FAIR      55  18  23 S12       30.03R
PAGOSA SPRINGS FAIR      51  16  25 CALM      30.12R
TELLURIDE      FAIR      50   9  19 W13G22    30.17R
WOLF CREEK PAS FAIR      32   9  37 SW24G40   30.31R WCI  19
$$

COZ009-010-012-014-032>034-037-058>063-250600-
...CENTRAL COLORADO...

CITY           SKY/WX    TMP DP  RH WIND       PRES   REMARKS
ASPEN          FAIR      41  24  51 CALM      30.03R
BUENA VISTA    MOCLDY    51  12  20 E3        30.05S
COPPER MTN     NOT AVBL
BERTHOUD PASS  FAIR      30  21  69 W9        30.26S WCI  22
COTTONWOOD PAS FAIR      50   5  16 SW9       30.15S
GUNNISON       FAIR      46  18  31 CALM      30.09R
KREMMLING      FAIR      46  23  39 N3        30.04R
LEADVILLE      MOCLDY    42  17  36 SE8       30.14S
MONARCH PASS   FAIR      36  10  35 SW35G40   30.35S
SALIDA         FAIR      53  15  22 W7        30.11S
SUNLIGHT       FAIR      39  21  48 CALM      30.19R
WILKERSON PASS FAIR      37   9  30 SW7       30.24S
$$

COZ069>075-250600-
...SAN LUIS VALLEY/SANGRE DE CRISTO MOUNTAINS...

CITY           SKY/WX    TMP DP  RH WIND       PRES   REMARKS
ALAMOSA        FAIR      44  19  36 SW3       30.07R
LA VETA PASS   CLOUDY    45  14  29 S12G22    30.20S
SAGUACHE       FAIR      43  18  36 CALM      30.09R
$$

COZ035-036-038>040-250600-
...NORTHERN COLORADO FRONT RANGE...

CITY           SKY/WX    TMP DP  RH WIND       PRES   REMARKS
DENVER INTL AP FAIR      54  47  77 SW6       29.88R
DMNS CITY PARK   N/A     55  48  77 SW2       29.89R
AURORA         PTCLDY    53  47  79 SW6       29.90S
FRONT RANGE AP NOT AVBL
ERIE MUNI ARPT FAIR      51  47  89 S3        29.87R
BOULDER MUN AP FAIR      57  46  67 CALM      29.87S
CENTENNIAL     FAIR      55  47  74 SW3       29.91S
BROOMFIELD     NOT AVBL
FORT COLLINS   FAIR      52  45  76 CALM      29.86S
LONGMONT       FAIR      57  47  71 W3        29.88S
$$

COZ041-046-047-076>085-087-088-250600-
...PIKES PEAK/PALMER DIVIDE AND SOUTHERN FOOTHILLS...

CITY           SKY/WX    TMP DP  RH WIND       PRES   REMARKS
COLO. SPRINGS  FAIR      67   8  10 W16       29.94R
A. F. ACADEMY  FAIR      54  23  30 NE9       29.94R
SCHRIEVER AFB  NOT AVBL
ELLICOTT       FAIR     N/A N/A N/A SW8       29.92R
FALCON         FAIR      51  20  29 W9        29.98R
FORT CARSON    FAIR      65  13  13 SW13G22   29.89R
LIMON          FAIR      45  40  82 N9        29.86R
MONUMENT HILL  FAIR      45  43  93 W8        30.00R
TRINIDAD       FAIR      59  24  26 W5        29.95R
$$

COZ042>045-048>051-090-091-250600-
...NORTHEAST COLORADO...

CITY           SKY/WX    TMP DP  RH WIND       PRES   REMARKS
GREELEY ARPT   FAIR      54  46  76 SE5       29.85R
AKRON          CLOUDY    55  52  89 E13       29.82F
BURLINGTON     FAIR      56  53  90 E9        29.77F
WRAY           FAIR      61  55  82 NE6       29.81R
STERLING       TSTM      57  52  82 NE6       29.81S
HOLYOKE        FAIR      55  54  94 CALM      29.81F
FORT MORGAN    FAIR      53  45  73 NE10      29.83S
$$

COZ086-089-092>099-250600-
...SOUTHEAST COLORADO...

CITY           SKY/WX    TMP DP  RH WIND       PRES   REMARKS
PUEBLO         FAIR      61  28  28 W8        29.84R
LA JUNTA       FAIR      64  38  38 SW12      29.79R
LAMAR          FAIR      60  31  33 SW8       29.72R
SPRINGFIELD      N/A     61  27  27 W13       29.82R
$$




USA.gov is the U.S. government's official web portal to all federal, state and local government web resources and services.